Jogging d'Esneux 22/08/2015 - 10 km
Mise à jour le : 23/08/2015 à 16:00
Place Nom Prénom Dossard Temps Vitesse Allure Place. Cat. Catégorie
1 SERVAIS NOAH 273 35:49 16,75 3:34 1 Séniors
2 LEHANCE CEDRIC 313 36:37 16,38 3:39 2 Séniors
3 CLAUSSE CHRISTOPHE 290 37:03 16,19 3:42 3 Séniors
4 KAILS REMY 332 37:29 16,00 3:44 4 Séniors
5 MINY OLIVIER 55 37:54 15,83 3:47 5 Séniors
6 VAN DEN BLINK ERIC 213 37:59 15,79 3:47 1 Vétérans 1
7 LAMBOTTE BENOIT 207 38:33 15,56 3:51 6 Séniors
8 ROLLAND THOMAS 69 38:37 15,53 3:51 7 Séniors
9 OTTAVIANI ERWIN 278 38:50 15,45 3:53 8 Séniors
10 ESTEBEZ ANDRE 199 38:54 15,42 3:53 2 Vétérans 1
11 SPANU EDOUARD 187 38:55 15,41 3:53 9 Séniors
12 NEZER JIMMY 311 39:03 15,36 3:54 10 Séniors
13 SPANU LAURENT 72 39:24 15,23 3:56 11 Séniors
14 LECLERCQ PHILIPPE 181 39:41 15,12 3:58 12 Séniors
15 KAYIHURA JEAN IDES 37 40:13 14,92 4:01 13 Séniors
16 FROIDCOEUR XAVIER 145 40:19 14,88 4:01 3 Vétérans 1
17 COMPERE SEBASTIEN 205 40:30 14,81 4:03 4 Vétérans 1
18 SANFILIPPO DAMIEN 93 40:37 14,77 4:03 14 Séniors
19 DEFECHEREUX CEDRIC 119 40:46 14,71 4:04 5 Vétérans 1
20 DEFECHEREUX FABIAN 120 40:46 14,71 4:04 6 Vétérans 1
21 D'AVELINO MICHAEL 129 40:49 14,70 4:04 7 Vétérans 1
22 JACQUEMIN BENOIT 298 41:00 14,63 4:06 8 Vétérans 1
23 DEMARCHE CHRISTOPHE 224 41:07 14,59 4:06 15 Séniors
24 MOUSSEBOIS ERIC 87 41:12 14,56 4:07 16 Séniors
25 MALHERBE XAVIER 309 41:21 14,51 4:08 17 Séniors
26 CHAUVEHEID MARC 85 41:24 14,49 4:08 18 Séniors
27 GREGOIRE CHRISTOPHE 350 41:36 14,42 4:09 19 Séniors
28 ALBORES ROBERTO 255 41:42 14,39 4:10 20 Séniors
29 DEPAYE NICOLAS 18 41:48 14,35 4:10 21 Séniors
30 MERODIO GEROME 418 42:08 14,24 4:12 22 Séniors
31 WAGELMANS CLARISSE 138 42:09 14,23 4:12 1 Ainées 1
32 THIRION MARC 75 42:27 14,13 4:14 9 Vétérans 1
33 BERWART GILLES 310 42:41 14,06 4:16 23 Séniors
34 BARBIER CHRISTOPHE 132 42:41 14,05 4:16 10 Vétérans 1
35 GILLET SERGE 155 42:46 14,03 4:16 1 Vétérans 2
36 VAN HEMELEN PAUL 81 42:47 14,02 4:16 11 Vétérans 1
37 VAN HOYE MARTIN 367 42:48 14,02 4:16 24 Séniors
38 JULEMONT PIERRE 390 42:51 14,00 4:17 25 Séniors
39 LEPLAT GILLES 426 42:59 13,95 4:17 26 Séniors
40 MOUTON ALEXANDRE 59 43:01 13,95 4:18 27 Séniors
41 LISIN OLIVIER 261 43:06 13,92 4:18 28 Séniors
42 CASTERMANS VINCENT 260 43:06 13,92 4:18 29 Séniors
43 DEGHAYE BERNARD 240 43:14 13,88 4:19 12 Vétérans 1
44 DEMOULIN CHRISTOPHE 238 43:21 13,84 4:20 30 Séniors
45 DESSARI MARIE 246 43:24 13,82 4:20 2 Ainées 1
46 COULEE CHRISTOPHE 222 43:31 13,79 4:21 31 Séniors
47 SOMVILLE PIERRE RENE 287 43:38 13,75 4:21 32 Séniors
48 VOGLAIRE JÉRÉMY 78 43:46 13,71 4:22 33 Séniors
49 ALLEREAU ADRIEN 339 43:55 13,66 4:23 34 Séniors
50 RENARD VIVIANE 94 44:02 13,62 4:24 3 Ainées 1
51 JASPERS LAURENT 288 44:03 13,62 4:24 35 Séniors
52 LECLERE SEBASTIEN 296 44:06 13,60 4:24 36 Séniors
53 CROISIR ARNAUD 324 44:15 13,56 4:25 37 Séniors
54 MESTDAGT CHRISTOPHE 363 44:26 13,50 4:26 38 Séniors
55 ESSABRI MAXIME 247 44:30 13,48 4:27 39 Séniors
56 DELOGE JEAN FRANCOIS 259 44:31 13,48 4:27 40 Séniors
57 MEYLEMANS FREDERIC 378 44:36 13,45 4:27 13 Vétérans 1
58 DE MARCHIN GUILLAUME 14 44:39 13,43 4:27 41 Séniors
59 MABILLE GEORGES 197 44:42 13,42 4:28 2 Vétérans 2
60 CORSO DINO 354 44:46 13,40 4:28 14 Vétérans 1
61 DEJARDIN FREDERIC 429 44:48 13,39 4:28 15 Vétérans 1
62 PISCART FRANCOISE 188 44:51 13,37 4:29 4 Ainées 1
63 KNAPEN LAURENT 234 44:54 13,36 4:29 3 Vétérans 2
64 ENGLEBERT JEAN-FRANCOIS 377 44:57 13,35 4:29 42 Séniors
65 LENNES PIERRE 228 45:04 13,31 4:30 4 Vétérans 2
66 SALMON ARNAUD 372 45:08 13,29 4:30 43 Séniors
67 JAMIN PHILIPPE 34 45:13 13,27 4:31 44 Séniors
68 MASY YANNICK 49 45:18 13,24 4:31 45 Séniors
69 CHABABE LARBI 212 45:19 13,24 4:31 16 Vétérans 1
70 MICHEL JEAN-MARC 53 45:20 13,23 4:32 5 Vétérans 2
71 RAMELOT REGIS 204 45:21 13,23 4:32 46 Séniors
72 DOMAIN GUILLAUME 294 45:28 13,19 4:32 47 Séniors
73 LION PASCAL 116 45:32 13,17 4:33 17 Vétérans 1
74 TILMAN JONATHAN 361 45:37 13,15 4:33 48 Séniors
75 BASTIN YOANN 314 45:45 13,11 4:34 49 Séniors
76 JANSEN CAROLINE 281 45:45 13,11 4:34 1 Dames
77 LOUON VINCENT 280 45:48 13,10 4:34 50 Séniors
78 GILELT DOMINIQUE 146 45:49 13,09 4:34 6 Vétérans 2
79 CANALES ALBERTO 151 45:50 13,09 4:35 1 Vétérans 3
80 DUPONT JAN 301 45:59 13,04 4:35 51 Séniors
81 ROSU MELANIE 286 46:08 13,00 4:36 2 Dames
82 MILANTS CHRISTOPHE 54 46:11 12,99 4:37 52 Séniors
83 BODSON RAPHAËL 5 46:20 12,95 4:38 53 Séniors
84 MORTELE MALORY 262 46:40 12,86 4:40 54 Séniors
85 MATHEI EDWIN 106 46:47 12,82 4:40 55 Séniors
86 MARINO GIOVANI 135 46:55 12,79 4:41 7 Vétérans 2
87 DEWART GWEN 100 47:01 12,76 4:42 56 Séniors
88 INCONNU INCONNU 0 47:04 12,75 0
89 CREPIN BORIS 333 47:05 12,74 4:42 57 Séniors
90 BRULL CEDRIC 252 47:07 12,73 4:42 58 Séniors
91 BECKERS JACQUES 371 47:10 12,72 4:43 59 Séniors
92 HENROTAY ROLAND 312 47:14 12,70 4:43 60 Séniors
93 BURTON PIERRE 267 47:25 12,65 4:44 61 Séniors
94 CULOT JEAN YVES 165 47:30 12,63 4:45 18 Vétérans 1
95 DELREZ STEPHANE 430 47:33 12,62 4:45 19 Vétérans 1
96 GENOTTE CORENTIN 183 47:41 12,58 4:46 62 Séniors
97 MUGNIER BENOIT 289 47:47 12,56 4:46 63 Séniors
98 ROI PHILIPPE 370 47:47 12,55 4:46 20 Vétérans 1
99 MATHEYS GEOFFREY 347 47:48 12,55 4:46 64 Séniors
100 BONA GUY 144 47:52 12,53 4:47 2 Vétérans 3
101 ROSE ERIC 134 47:54 12,52 4:47 8 Vétérans 2
102 CORDEWIN NICOLAS 13 48:07 12,47 4:48 65 Séniors
103 MESTAG JUSTIN 250 48:25 12,39 4:50 66 Séniors
104 VAN LANGEUELD ROGER 154 48:30 12,37 4:51 9 Vétérans 2
105 ANTOINE MICHAEL 428 48:36 12,34 4:51 67 Séniors
106 JULEMONT GIL 383 48:38 12,34 4:51 68 Séniors
107 WOUTELET GAETAN 407 48:39 12,33 4:51 69 Séniors
108 RUBERTO PASQUALE 153 48:43 12,31 4:52 3 Vétérans 3
109 CRIELLARD MANON 317 48:46 12,30 4:52 3 Dames
110 MASSON VINCENT 48 48:48 12,29 4:52 21 Vétérans 1
111 DELHEZ CLAUDE 194 48:50 12,29 4:53 10 Vétérans 2
112 ILLISIBLE JULES 358 48:51 12,28 4:53 0 H Sans Cat
113 CAJOT CHRISTIAN 308 48:57 12,25 4:53 22 Vétérans 1
114 ONSSELS JEAN CLAUDE 142 49:06 12,22 4:54 4 Vétérans 3
115 DI CESARE STÉPHANE 20 49:09 12,21 4:54 70 Séniors
116 CANIVET GREGORY 206 49:12 12,19 4:55 71 Séniors
117 PIRON ANDRÉ 152 49:15 12,18 4:55 5 Vétérans 3
118 BONNEU TIMMIE 80 49:16 12,18 4:55 5 Ainées 1
119 MEIJVAERS PATRICK 282 49:33 12,11 4:57 23 Vétérans 1
120 BERTRAND THOMAS 304 49:34 12,10 4:57 72 Séniors
121 CICCARELLA NORAH 355 49:35 12,10 4:57 4 Dames
122 CICCARELLA TONY 356 49:36 12,10 4:57 24 Vétérans 1
123 DECKERS MANU 243 49:40 12,08 4:58 25 Vétérans 1
124 BIRTLES CYMON 201 49:41 12,07 4:58 26 Vétérans 1
125 KAESMACHER PHILIPPE 160 49:42 12,07 4:58 11 Vétérans 2
126 GERARD CHRISTOPHE 26 49:50 12,04 4:59 73 Séniors
127 MAROT BERNARD 176 50:01 11,99 5:00 6 Vétérans 3
128 DEMEULDRE PIERRE-FRANCOIS 277 50:05 11,98 5:00 74 Séniors
129 REMY SEBASTIEN 401 50:10 11,96 5:01 75 Séniors
130 OVIDIO MICHAEL 60 50:10 11,96 5:01 27 Vétérans 1
131 DAWANT SEBASTIEN 192 50:14 11,94 5:01 76 Séniors
132 BYTHELL WILLIAM 335 50:15 11,94 5:01 7 Vétérans 3
133 PIRARD CATHERINE 122 50:23 11,91 5:02 6 Ainées 1
134 DELROUALLE ANDRÉ 227 50:34 11,86 5:03 12 Vétérans 2
135 TOSI IRENE 219 50:42 11,83 5:04 5 Dames
136 MONTEFORTE ALEXANDRE 235 50:45 11,82 5:04 77 Séniors
137 DERENNE CELINE 275 50:49 11,81 5:04 6 Dames
138 AUDRIT MANU 110 50:51 11,80 5:05 78 Séniors
139 BARON EMMANUEL 91 50:54 11,79 5:05 13 Vétérans 2
140 DEHIN REGINALD 113 50:55 11,78 5:05 79 Séniors
141 LION ERIC 306 51:04 11,75 5:06 14 Vétérans 2
142 HAUPERS LAURENT 369 51:06 11,74 5:06 80 Séniors
143 MEUNIER VINCENT 276 51:08 11,73 5:06 81 Séniors
144 HUSQUINET SEBASTIEN 315 51:13 11,71 5:07 28 Vétérans 1
145 PAULUS JEAN-LOUIS 61 51:15 11,71 5:07 15 Vétérans 2
146 VAN HOVE DELPHINE 245 51:18 11,69 5:07 7 Dames
147 SANCHEZ JOSE 162 51:19 11,69 5:07 16 Vétérans 2
148 FERRUGGIA FRANCOIS 191 51:25 11,67 5:08 29 Vétérans 1
149 MUTSINZI JABO 79 51:35 11,63 5:09 82 Séniors
150 STRUZIK JULIE 74 51:37 11,62 5:09 8 Dames
151 CHUDYBA JEAN-MARIE 12 51:41 11,61 5:10 30 Vétérans 1
152 KAUX JEAN-FRANÇOIS 36 51:43 11,60 5:10 83 Séniors
153 SCHNEYDERS MICHEL 149 51:44 11,60 5:10 31 Vétérans 1
154 DECHAMPS LUC 265 51:50 11,57 5:11 17 Vétérans 2
155 COULEE FREDDY 218 51:56 11,55 5:11 8 Vétérans 3
156 GOHY BENOIT 362 52:06 11,51 5:12 84 Séniors
157 GEERTS JACQUES 349 52:13 11,49 5:13 32 Vétérans 1
158 RUSSO JOSEPH 220 52:20 11,46 5:14 33 Vétérans 1
159 MOOR CLAUDINE 264 52:21 11,46 5:14 9 Dames
160 CUIPERS WILLY 195 52:52 11,35 5:17 9 Vétérans 3
161 BOURSOIS GILLES 103 52:52 11,35 5:17 85 Séniors
162 COLSON JEAN POL 137 52:59 11,32 5:17 18 Vétérans 2
163 MERRAT LAURENT 336 53:01 11,32 5:18 86 Séniors
164 HEINE ARNAUD 121 53:07 11,29 5:18 87 Séniors
165 TIMMERMANN GHISLAIN 236 53:08 11,29 5:18 19 Vétérans 2
166 FOULON JONATHAN 338 53:10 11,28 5:19 88 Séniors
167 FOURNY PHILIPPE 24 53:13 11,27 5:19 10 Vétérans 3
168 MORIMONT PHILIPPE 136 53:14 11,27 5:19 34 Vétérans 1
169 FAUCONNIER CHRISTOPHE 208 53:16 11,26 5:19 35 Vétérans 1
170 GROSJEAN ARNAUD 115 53:23 11,24 5:20 36 Vétérans 1
171 COLLINGE ARNAUD 97 53:23 11,24 5:20 89 Séniors
172 NONDONFAZ YANNICK 299 53:25 11,23 5:20 20 Vétérans 2
173 HUMBLET ERIC 32 53:27 11,22 5:20 21 Vétérans 2
174 THOMAS ALEXANDRE 340 53:28 11,22 5:20 90 Séniors
175 HOFFMANN BASTIEN 251 53:29 11,22 5:20 91 Séniors
176 CLAJOT REMY 253 53:32 11,21 5:21 92 Séniors
177 JACQUES HUGO 249 53:36 11,19 5:21 93 Séniors
178 TRENTESEAUX JACQUES 284 53:38 11,19 5:21 22 Vétérans 2
179 D'OUIDIO RAPHAEL 177 53:42 11,17 5:22 94 Séniors
180 CURTO DIEGO 239 53:43 11,17 5:22 23 Vétérans 2
181 DESAINTES PIERRE-YVES 19 53:44 11,16 5:22 95 Séniors
182 DIANA NICOLAS 291 53:47 11,15 5:22 37 Vétérans 1
183 FRANCOIS CEDRIC 185 53:50 11,14 5:23 96 Séniors
184 PHOLIEN LAURENCE 381 54:03 11,10 5:24 1 Ainées 2
185 PROVE MICHAEL 126 54:05 11,09 5:24 97 Séniors
186 RULMONT CLAUDE 123 54:08 11,08 5:24 24 Vétérans 2
187 RISACK ANTOINE 66 54:22 11,04 5:26 98 Séniors
188 JACOBS VERONIQUE 342 54:27 11,02 5:26 7 Ainées 1
189 KRICFALUSI YVAN 341 54:27 11,02 5:26 25 Vétérans 2
190 LACROSSE STEPHANIE 40 54:29 11,01 5:26 8 Ainées 1
191 VERLAINE ANNE FRANCE 268 54:44 10,96 5:28 9 Ainées 1
192 FOGOLIN TIZIANO 117 54:44 10,96 5:28 38 Vétérans 1
193 STASSAR GUILLAUME 73 54:45 10,96 5:28 99 Séniors
194 TIMMERS LAURENT 351 54:58 10,91 5:29 100 Séniors
195 ADAM MURIELLE 352 55:02 10,90 5:30 10 Dames
196 MOUTI ZOUHAIR 58 55:03 10,90 5:30 101 Séniors
197 BENGLER NATACHA 128 55:08 10,88 5:30 10 Ainées 1
198 BODSON VÉRONIQUE 184 55:08 10,88 5:30 11 Ainées 1
199 QUEVRIN ALAIN 376 55:15 10,86 5:31 39 Vétérans 1
200 DEVILLERS FRANCOIS XAVIER 182 55:21 10,84 5:32 102 Séniors
201 GRANDJEAN JEAN-LUC 169 55:22 10,83 5:32 40 Vétérans 1
202 BRIETEUX ALAIN 323 55:23 10,83 5:32 26 Vétérans 2
203 GATHOYE ERIC 319 55:25 10,83 5:32 103 Séniors
204 QUEVRIN PAULINE 375 55:33 10,80 5:33 11 Dames
205 HANSEZ JOEL 353 55:35 10,79 5:33 41 Vétérans 1
206 REINDERS THIERRY 150 55:35 10,79 5:33 42 Vétérans 1
207 MAKRYGIANNIS GEORGIOS 405 55:36 10,79 5:33 104 Séniors
208 LEROY CAROL 179 55:40 10,78 5:34 2 Ainées 2
209 LISIK NATHALIE 178 55:42 10,77 5:34 3 Ainées 2
210 PERISON MAXIME 318 55:43 10,77 5:34 105 Séniors
211 BURNOTTE NOELLA 124 55:44 10,76 5:34 4 Ainées 2
212 EBEN GUY 196 55:49 10,75 5:34 1 Vétérans 4
213 MEURISSE MAXIME 248 55:56 10,73 5:35 106 Séniors
214 DELERSY CHRISTOPHE 108 55:59 10,72 5:35 107 Séniors
215 BEAUVE PIERRE 210 56:05 10,70 5:36 108 Séniors
216 JOUNIAUX CHRISTOPHE 211 56:05 10,70 5:36 109 Séniors
217 INCONNU INCONNU 131 56:14 10,67 0
218 DREEZEN JEAN LOUIS 174 56:23 10,64 5:38 11 Vétérans 3
219 MAQUES CLAIRE 231 56:27 10,63 5:38 12 Dames
220 LANAVESE SYLVIE 202 56:30 10,62 5:39 13 Dames
221 STREEL NICOLAS 422 56:31 10,62 5:39 110 Séniors
222 JACQUEMIN PIERRE 424 56:32 10,61 5:39 111 Séniors
223 MARECHAL JEAN 395 56:33 10,61 5:39 43 Vétérans 1
224 MOSCA VINCENT 171 56:34 10,60 5:39 44 Vétérans 1
225 VANDEWEYER LUDIVINE 170 56:36 10,60 5:39 12 Ainées 1
226 DEGEMBE FRANÇOISE 209 56:37 10,60 5:39 5 Ainées 2
227 DUPLOUX GERARD 343 56:38 10,59 5:39 27 Vétérans 2
228 VANDEVOORDE MARIE-PAULE 225 56:40 10,59 5:40 1 Ainées 3
229 VANDENHAUTE JEROME 380 56:43 10,58 5:40 112 Séniors
230 HANSENNE CEDRIC 257 56:45 10,57 5:40 45 Vétérans 1
231 TORNABENE JULIEN 400 56:46 10,57 5:40 113 Séniors
232 KREINS PIERRE 419 56:49 10,56 5:40 114 Séniors
233 KETTELS JULIEN 420 56:49 10,56 5:40 115 Séniors
234 DELARGE TIFFANY 303 56:49 10,56 5:40 14 Dames
235 INCONNU INCONNU 0 56:49 10,56 0
236 DEFENDI SARAH 112 56:50 10,55 5:41 13 Ainées 1
237 LEON VICTOR 164 56:53 10,55 5:41 12 Vétérans 3
238 FETROS ELVIS 105 57:04 10,51 5:42 28 Vétérans 2
239 DETHEUX OLIVIER 190 57:07 10,50 5:42 46 Vétérans 1
240 DE MARCHIN PHILIPPE 125 57:08 10,50 5:42 29 Vétérans 2
241 DAVID MARTINE 127 57:10 10,49 5:43 6 Ainées 2
242 BODSON BERNARD 4 57:11 10,49 5:43 30 Vétérans 2
243 BOUNAMEAUX OLIVIER 226 57:12 10,49 5:43 47 Vétérans 1
244 CLAUDE SEBASTIEN 406 57:15 10,48 5:43 116 Séniors
245 DAVID SANDRA 229 57:21 10,46 5:44 14 Ainées 1
246 MARRAI BRUNO 345 57:34 10,42 5:45 31 Vétérans 2
247 REMACLE GILLES 379 57:37 10,41 5:45 117 Séniors
248 TAILLEUR BENJAMIN 368 57:44 10,39 5:46 118 Séniors
249 BOZET BERNARD 133 57:52 10,37 5:47 119 Séniors
250 CHARLIER PHILIPPE 230 58:06 10,33 5:48 32 Vétérans 2
251 MOSSOUX PHILIPPE 57 58:07 10,32 5:48 33 Vétérans 2
252 MORISSE AURORE 382 58:13 10,31 5:49 15 Dames
253 SALMON ERIC 130 58:15 10,30 5:49 34 Vétérans 2
254 SONNET JEAN LUC 366 58:16 10,29 5:49 48 Vétérans 1
255 COLLARD YOLANDE 393 58:18 10,29 5:49 16 Dames
256 PINCIC MARKO 62 58:19 10,29 5:49 2 Vétérans 4
257 FRANCHIMONT PATRICIA 221 58:20 10,29 5:50 15 Ainées 1
258 DAVID ALEXIS 272 58:21 10,28 5:50 120 Séniors
259 HANNESSE RUDY 302 58:27 10,26 5:50 121 Séniors
260 DEVILLERS PIERRE 180 58:36 10,24 5:51 49 Vétérans 1
261 SALMON CAROLINE 297 58:38 10,23 5:51 17 Dames
262 MICOLI MANU 392 58:40 10,22 5:52 122 Séniors
263 DECHENE JULIE 387 58:44 10,22 5:52 18 Dames
264 VLIEGEN GERARD 107 58:57 10,18 5:53 35 Vétérans 2
265 LUCA DI PINASO LUCAS 328 59:07 10,15 5:54 36 Vétérans 2
266 GRZESINSKI CHARLOTTE 167 59:16 10,12 5:55 19 Dames
267 THONON BENOIT 193 59:20 10,11 5:56 50 Vétérans 1
268 FLAGOTHIER MELISSA 271 59:24 10,10 5:56 20 Dames
269 LARMINIER CLAUDE 41 59:34 10,07 5:57 13 Vétérans 3
270 VANDERMISSEN PATRICIA 166 59:47 10,03 5:58 7 Ainées 2
271 BALTUS MICHAEL 237 59:49 10,03 5:58 123 Séniors
272 DEFRAITEUR SAMUEL 102 1:00:10 9,97 6:01 51 Vétérans 1
273 VERVOORT ANDY 1 1:00:11 9,97 6:01 21 Dames
274 HALLEUX DELPHINE 337 1:00:18 9,95 6:01 22 Dames
275 MORTELE RUDY 263 1:00:19 9,95 6:01 37 Vétérans 2
276 BORLON SARAH 8 1:00:26 9,93 6:02 23 Dames
277 DOLHAIN ERIC 21 1:00:28 9,92 6:02 52 Vétérans 1
278 DESMECHT DANIEL 413 1:01:09 9,81 6:06 38 Vétérans 2
279 DUQUENNE FRANCINE 83 1:01:14 9,80 6:07 8 Ainées 2
280 DA SILVA ANGELICA 147 1:01:25 9,77 6:08 16 Ainées 1
281 GUILLEMARD DIDIER 175 1:01:25 9,77 6:08 39 Vétérans 2
282 REMES JAM 344 1:01:26 9,77 6:08 40 Vétérans 2
283 WEHENKEL THOMAS 427 1:01:27 9,76 6:08 124 Séniors
284 PIRO CALOGERO 172 1:01:28 9,76 6:08 14 Vétérans 3
285 NOPPENS PHILIPPE 274 1:01:29 9,76 6:08 41 Vétérans 2
286 PETIT LUDIVINE 411 1:01:30 9,75 6:09 17 Ainées 1
287 BOKUETENGE FATU 365 1:01:32 9,75 6:09 18 Ainées 1
288 ALBANESE AURELIE 244 1:01:33 9,75 6:09 24 Dames
289 ADANT FREDERIC 283 1:01:46 9,71 6:10 53 Vétérans 1
290 DE NEUVILLE MAROUSSIA 423 1:01:53 9,69 6:11 25 Dames
291 DENEUVILLE GERALDINE 425 1:01:57 9,68 6:11 26 Dames
292 MESTDAGT FRANCOISE 364 1:01:57 9,68 6:11 19 Ainées 1
293 BISSOT RAPHAEL 99 1:02:19 9,63 6:13 54 Vétérans 1
294 BERNARD JUSTINE 396 1:02:26 9,61 6:14 27 Dames
295 SANGES DIEGO 397 1:02:26 9,61 6:14 125 Séniors
296 ROBBI RUDY 67 1:02:34 9,59 6:15 15 Vétérans 3
297 GALIOTTO XAVIER 410 1:02:35 9,58 6:15 126 Séniors
298 GRANDJEAN QUENTIN 186 1:02:37 9,58 6:15 127 Séniors
299 RODRIGUEZ PEDRO 68 1:02:54 9,54 6:17 42 Vétérans 2
300 TOMBEUX CHRISTIAN 76 1:02:54 9,54 6:17 16 Vétérans 3
301 LECLERCQ DIDIER 98 1:02:55 9,54 6:17 55 Vétérans 1
302 GOOSSENS CHRISTEL 279 1:03:07 9,51 6:18 28 Dames
303 LAMBERT JEROME 139 1:03:12 9,49 6:19 128 Séniors
304 HEINEN HENRI 28 1:03:17 9,48 6:19 3 Vétérans 4
305 DEPRE JEAN PIERRE 385 1:03:22 9,47 6:20 56 Vétérans 1
306 GUILLAUME JULIE 90 1:03:23 9,46 6:20 29 Dames
307 BERNARD ERIC 398 1:03:26 9,46 6:20 43 Vétérans 2
308 DEFRAITEUR ALAIN 101 1:03:30 9,45 6:21 17 Vétérans 3
309 VERACHTERT PAULINE 77 1:03:31 9,44 6:21 30 Dames
310 FANIEL PAULINE 322 1:03:37 9,43 6:21 31 Dames
311 VERJANS GUY 216 1:03:42 9,42 6:22 57 Vétérans 1
312 SCUVEE ELEONORE 70 1:03:45 9,41 6:22 32 Dames
313 JIN CAROLINE 321 1:04:01 9,37 6:24 20 Ainées 1
314 MACAUT CARINE 386 1:04:11 9,35 6:25 9 Ainées 2
315 BETRAND JEAN PAUL 305 1:04:12 9,34 6:25 44 Vétérans 2
316 BABE MICHEL 104 1:04:40 9,28 6:28 45 Vétérans 2
317 MAHF FLORENCE 331 1:04:42 9,27 6:28 21 Ainées 1
318 GASPARD INGRID 329 1:04:44 9,27 6:28 22 Ainées 1
319 DELVENNE CELINE 330 1:04:44 9,27 6:28 23 Ainées 1
320 MONIN CAROLINE 143 1:04:45 9,26 6:28 24 Ainées 1
321 VANDERMEULEN DANIEL 89 1:04:54 9,24 6:29 46 Vétérans 2
322 DECKERS MAURICETTE 242 1:04:56 9,24 6:29 25 Ainées 1
323 WERON KAROL 357 1:05:07 9,21 6:30 33 Dames
324 PAULUS CELINE 348 1:05:32 9,15 6:33 26 Ainées 1
325 NYSSEN MICHÈLE 92 1:05:34 9,15 6:33 10 Ainées 2
326 VANOORBEEK AURELIE 295 1:05:37 9,14 6:33 34 Dames
327 BREGAND OLIVIER 394 1:05:46 9,12 6:34 58 Vétérans 1
328 TAVIER ALINE 258 1:05:52 9,11 6:35 35 Dames
329 REUL LAURA 374 1:05:56 9,10 6:35 36 Dames
330 BORGUET CHRISTOPHE 270 1:06:23 9,04 6:38 59 Vétérans 1
331 SCHMITZ KATIA 163 1:06:47 8,98 6:40 27 Ainées 1
332 FAHSOLD PIERRE 22 1:06:51 8,97 6:41 129 Séniors
333 HENVEAUX PIERRE 266 1:07:06 8,94 6:42 130 Séniors
334 D'ORIO VALERIANE 300 1:07:08 8,94 6:42 37 Dames
335 HUGHEBAERT BRUNO 31 1:07:11 8,93 6:43 60 Vétérans 1
336 KLEINKENBERG PIERRE 39 1:07:12 8,93 6:43 61 Vétérans 1
337 KLEINKENBERG GUILLAUME 388 1:07:13 8,92 6:43 131 Séniors
338 KLEINKENBERG THOMAS 391 1:07:14 8,92 6:43 132 Séniors
339 KLEINKENBERG LUC 38 1:07:16 8,92 6:43 62 Vétérans 1
340 MAHY DIDIER 46 1:07:17 8,92 6:43 47 Vétérans 2
341 MAQUET FABIENNE 95 1:07:18 8,91 6:43 11 Ainées 2
342 DETHIER CHANTAL 285 1:07:20 8,91 6:44 28 Ainées 1
343 LONEUX CAROLINE 45 1:07:21 8,91 6:44 29 Ainées 1
344 BECKERS FRANÇOISE 3 1:07:26 8,90 6:44 30 Ainées 1
345 LECOMTE JEAN PIERRE 42 1:07:26 8,90 6:44 63 Vétérans 1
346 CHARLIER SANDRINE 11 1:07:26 8,90 6:44 31 Ainées 1
347 LEGRAIN EMMANUELLE 43 1:07:26 8,90 6:44 12 Ainées 2
348 GIELEN XAVIER 409 1:07:58 8,83 6:47 133 Séniors
349 PREUD HOMME DEMPSEY 404 1:08:02 8,82 6:48 134 Séniors
350 MASY HENRI 50 1:08:03 8,82 6:48 18 Vétérans 3
351 LINDEN ANNICK 414 1:08:07 8,81 6:48 13 Ainées 2
352 INCONNU INCONNU 879 1:08:08 8,81 0
353 DOR CAMILLE 408 1:08:32 8,75 6:51 38 Dames
354 MECZKOWSKI STAN 156 1:08:34 8,75 6:51 4 Vétérans 4
355 DELVIGNE MONIQUE 173 1:08:47 8,72 6:52 2 Ainées 3
356 HENNEMONT VANESSA 29 1:08:54 8,71 6:53 32 Ainées 1
357 DE SMET JACQUES 15 1:08:58 8,70 6:53 19 Vétérans 3
358 NEVEN VINCIANE 88 1:09:11 8,67 6:55 33 Ainées 1
359 MAQUET NATHALIE 214 1:09:21 8,65 6:56 34 Ainées 1
360 RAGATUSO THOMAS 203 1:09:44 8,60 6:58 135 Séniors
361 GRATIA ANNIE 189 1:09:49 8,59 6:58 14 Ainées 2
362 GERMAIN YVES 96 1:09:56 8,58 6:59 48 Vétérans 2
363 ALLOO SYLVIE 2 1:09:57 8,58 6:59 15 Ainées 2
364 DEFECHEREUX LARA 118 1:10:07 8,56 7:00 39 Dames
365 BREES DELPHINE 82 1:10:10 8,55 7:01 40 Dames
366 LOPES MIKAEL 86 1:10:10 8,55 7:01 136 Séniors
367 WILKIN PATRICIA 148 1:10:12 8,55 7:01 35 Ainées 1
368 DEWE CAROLINE 269 1:10:41 8,49 7:04 36 Ainées 1
369 RENERY LAURENCE 198 1:10:55 8,46 7:05 41 Dames
370 CHACON ANTONIA 200 1:10:55 8,46 7:05 37 Ainées 1
371 MARION ISABELLE 47 1:11:20 8,41 7:08 38 Ainées 1
372 RAWAY ALAIN 168 1:11:21 8,41 7:08 49 Vétérans 2
373 HUPPE CATHERINE 33 1:11:22 8,41 7:08 16 Ainées 2
374 SPRIMONT LAETITIA 215 1:11:36 8,38 7:09 42 Dames
375 DAIROMONT JULIETTE 316 1:11:41 8,37 7:10 3 Ainées 3
376 BONNET SOPHIE 6 1:11:41 8,37 7:10 17 Ainées 2
377 GALAND AURORE 402 1:11:44 8,36 7:10 43 Dames
378 MERLAND LUC 52 1:11:45 8,36 7:10 50 Vétérans 2
379 ANNE FRANCOISE 389 1:11:46 8,36 7:10 4 Ainées 3
380 LEONARD GUY 223 1:11:47 8,36 7:10 51 Vétérans 2
381 NOISET GERALDINE 327 1:11:52 8,35 7:11 39 Ainées 1
382 BRAGHINI ANGELS 161 1:12:24 8,29 7:14 52 Vétérans 2
383 DELVAUX MAYA 320 1:12:28 8,28 7:14 44 Dames
384 MOHR SEVERINE 56 1:12:39 8,26 7:15 40 Ainées 1
385 SKAWINIAK EVA 71 1:12:44 8,25 7:16 45 Dames
386 SCHLIT LIONEL 157 1:12:45 8,25 7:16 137 Séniors
387 JOIE EMMA 35 1:12:48 8,24 7:16 46 Dames
388 GIANICO NICOLA 254 1:12:49 8,24 7:16 64 Vétérans 1
389 DEGUELDRE JULIE 16 1:13:05 8,21 7:18 41 Ainées 1
390 KINET EMMANUEL 334 1:13:06 8,21 7:18 65 Vétérans 1
391 DEPRE JEAN PIERRE 384 1:13:52 8,12 7:23 66 Vétérans 1
392 NIZET CHRISTIAN 158 1:13:58 8,11 7:23 53 Vétérans 2
393 COUNE PATRICK 159 1:13:58 8,11 7:23 54 Vétérans 2
394 DESMECHT SALOME 412 1:13:59 8,11 7:23 47 Dames
395 JACQUEMART CELINE 399 1:14:47 8,02 7:28 48 Dames
396 LOITA TONI 109 1:14:49 8,02 7:28 20 Vétérans 3
397 DESMECHT ALICE 416 1:14:52 8,01 7:29 49 Dames
398 LEBLAN FRANCOISE 325 1:15:05 7,99 7:30 18 Ainées 2
399 BRUSTEN MICHEL 326 1:15:05 7,99 7:30 55 Vétérans 2
400 PIRARD ALEXA 111 1:15:08 7,99 7:30 50 Dames
401 MICHIELS MARC 140 1:16:01 7,89 7:36 56 Vétérans 2
402 NIJS DOMINIQUE 233 1:17:42 7,72 7:46 5 Ainées 3
403 DONNEAUX FRANCE 307 1:18:21 7,66 7:50 42 Ainées 1
404 WECHSELER DANIEL 403 1:18:21 7,66 7:50 21 Vétérans 3
405 DONNAY BRIGITTE 346 1:19:29 7,55 7:56 19 Ainées 2
406 MARTIN CLAIRE 360 1:20:34 7,45 8:03 0 F Sans Cat
407 COLLIGNON ROBERT 421 1:22:00 7,32 8:12 1 Vétérans 5
408 JACOBY CHRISTEL 256 1:22:02 7,31 8:12 43 Ainées 1
409 VINCENT SARAH 415 1:22:03 7,31 8:12 51 Dames
410 MAUS NATHALIE 51 1:25:05 7,05 8:30 44 Ainées 1
411 WARLAND ANDRE 293 1:25:06 7,05 8:30 57 Vétérans 2
412 PLASMAN DOMINIQUE 64 1:25:07 7,05 8:30 67 Vétérans 1
413 DELANDSHEER JEAN 241 1:25:50 6,99 8:35 22 Vétérans 3
414 LEMAITRE FRANCINE 44 1:36:14 6,23 9:37 6 Ainées 3